This is the latest recevied weather packets stored in our database for station/object WX7EM. If no packets are shown the sender has not sent any weather packets the latest 1 day(s).
| Time | Temp. | Humidity | Pressure | Rain* | Wind** | Luminosity | Snow |
|---|---|---|---|---|---|---|---|
| 1778030868 | 18.89° C | 69% | 1014.4 hPa | 0 mm | - | 137 W/m² | - |
| 1778030565 | 18.89° C | 69% | 1014.5 hPa | 0 mm | - | 150 W/m² | - |
| 1778029958 | 18.33° C | 69% | 1014.4 hPa | 0 mm | - | 181 W/m² | - |
| 1778029657 | 19.44° C | 68% | 1014.6 hPa | 0 mm | - | 193 W/m² | - |
| 1778029354 | 18.89° C | 69% | 1014.5 hPa | 0 mm | - | 198 W/m² | - |
| 1778029051 | 18.89° C | 68% | 1014.6 hPa | 0 mm | - | 198 W/m² | - |
| 1778028748 | 18.33° C | 70% | 1014.5 hPa | 0 mm | - | 234 W/m² | - |
| 1778028443 | 18.89° C | 70% | 1014.4 hPa | 0 mm | - | 246 W/m² | - |
| 1778027837 | 18.33° C | 70% | 1014.6 hPa | 0 mm | - | 78 W/m² | - |
| 1778027534 | 17.78° C | 72% | 1014.5 hPa | 0 mm | - | 74 W/m² | - |
| 1778026926 | 18.33° C | 71% | 1014.7 hPa | 0 mm | - | 197 W/m² | - |
| 1778025412 | 18.33° C | 70% | 1014.8 hPa | 0 mm | - | 242 W/m² | - |
| 1778023897 | 17.22° C | 74% | 1015 hPa | 0 mm | - | 267 W/m² | - |
| 1778023292 | 16.67° C | 76% | 1015.2 hPa | 0 mm | - | 226 W/m² | - |
| 1778022081 | 16.67° C | 76% | 1015.3 hPa | 0 mm | - | 231 W/m² | - |
| 1778021474 | 16.67° C | 76% | 1015.2 hPa | 0 mm | - | 207 W/m² | - |
| 1778019654 | 16.67° C | 75% | 1015.5 hPa | 0 mm | - | 228 W/m² | - |
| 1778018745 | 16.67° C | 75% | 1015.4 hPa | 0 mm | - | 256 W/m² | - |
| 1778017838 | 16.11° C | 76% | 1015.6 hPa | 0 mm | - | 243 W/m² | - |
| 1778017536 | 16.67° C | 75% | 1015.6 hPa | 0 mm | - | 270 W/m² | - |
| 1778016626 | 16.67° C | 75% | 1015.6 hPa | 0 mm | - | 302 W/m² | - |
| 1778015414 | 16.67° C | 75% | 1015.8 hPa | 0 mm | - | 379 W/m² | - |
* Rain latest hour (hover to see other rain measurements)
** Current wind speed in m/s (hover to see current wind gust speed)